M0TUM-1 Weather Reports


time (UTC)temp
C
wind
direction
speed
KPH
gust
KPH
rain 1hr
cm
rain 24hr
cm
rain mn
cm
humidity
%
barometer
mb
20260506135726 10 344 6.4 9.7 0.00 0.46 0.46 81 1013.0
20260506135222 10 177 4.8 8.0 0.00 0.46 0.46 82 1013.1
20260506134719 10 50 0.0 1.6 0.00 0.46 0.46 83 1012.9
20260506134215 10 204 3.2 3.2 0.00 0.46 0.46 83 1013.3
20260506133713 10 359 4.8 8.0 0.00 0.46 0.46 83 1012.9
20260506133209 10 245 1.6 1.6 0.00 0.46 0.46 84 1013.1
20260506132707 10 10 3.2 4.8 0.00 0.46 0.46 84 1012.8
20260506132203 10 347 3.2 3.2 0.00 0.46 0.46 84 1012.9
20260506131701 10 271 3.2 3.2 0.00 0.46 0.46 84 1013.0
20260506131157 10 264 1.6 3.2 0.00 0.46 0.46 85 1013.0
20260506130654 10 272 1.6 1.6 0.00 0.46 0.46 84 1012.9
20260506130151 10 21 1.6 3.2 0.00 0.46 0.46 84 1013.1
20260506125649 10 223 0.0 1.6 0.00 0.46 0.46 84 1012.8
20260506125147 10 186 0.0 1.6 0.00 0.46 0.46 84 1012.9
20260506124645 10 58 4.8 4.8 0.00 0.46 0.46 83 1013.1
20260506124142 10 16 3.2 3.2 0.00 0.46 0.46 83 1012.8
20260506123639 10 14 11.3 12.9 0.00 0.46 0.46 83 1012.9
20260506123138 10 64 4.8 4.8 0.00 0.46 0.46 83 1012.8
20260506122635 10 231 1.6 1.6 0.00 0.46 0.46 84 1012.6
20260506122132 10 2 3.2 4.8 0.00 0.46 0.46 84 1012.8
20260506121630 10 275 3.2 3.2 0.00 0.46 0.46 85 1012.7
20260506121126 10 280 3.2 3.2 0.00 0.46 0.46 85 1013.1
20260506120624 10 15 6.4 8.0 0.00 0.46 0.46 85 1012.8
20260506120121 10 120 1.6 3.2 0.00 0.46 0.46 86 1012.7
20260506115620 10 182 1.6 1.6 0.00 0.46 0.46 86 1012.7
20260506115117 10 189 1.6 1.6 0.00 0.46 0.46 86 1012.7
20260506114614 9 41 4.8 4.8 0.00 0.46 0.46 86 1012.6
20260506114112 9 19 3.2 4.8 0.00 0.46 0.46 87 1012.9
20260506113610 9 285 3.2 4.8 0.00 0.46 0.46 87 1012.9
20260506113107 9 33 8.0 12.9 0.13 0.46 0.46 87 1013.0
20260506112603 9 232 4.8 4.8 0.13 0.46 0.46 87 1012.9
20260506112102 9 356 1.6 4.8 0.00 0.43 0.43 87 1012.8
20260506111559 9 186 1.6 1.6 0.00 0.43 0.43 87 1012.8
20260506111056 9 229 1.6 3.2 0.18 0.43 0.43 87 1012.7
20260506110554 10 243 1.6 3.2 0.30 0.43 0.43 87 1012.7
20260506110051 10 221 0.0 0.0 0.30 0.41 0.41 87 1012.7
20260506105547 9 2 4.8 4.8 0.30 0.38 0.38 87 1012.9
20260506105044 8 256 0.0 0.0 0.13 0.36 0.36 87 1013.0
20260506104542 9 10 12.9 14.5 0.18 0.33 0.33 87 1012.7
20260506104040 9 208 1.6 1.6 0.18 0.33 0.33 87 1012.9
20260506103537 9 308 3.2 4.8 0.13 0.30 0.30 86 1012.7
20260506103033 9 16 9.7 12.9 0.13 0.30 0.30 86 1012.7
20260506102532 9 12 6.4 9.7 0.30 0.28 0.28 86 1012.6
20260506102029 9 320 8.0 11.3 0.30 0.28 0.28 85 1012.5
20260506101525 9 271 6.4 8.0 0.18 0.23 0.23 85 1012.8
20260506101023 9 301 11.3 12.9 0.18 0.23 0.23 85 1012.8
20260506100521 10 25 3.2 3.2 0.00 0.20 0.20 84 1012.7
20260506100019 10 229 8.0 14.5 0.00 0.20 0.20 83 1012.6
20260506095517 10 59 17.7 20.9 0.00 0.20 0.20 83 1012.5
20260506095013 10 16 9.7 11.3 0.00 0.20 0.20 83 1012.4
20260506094511 10 18 14.5 22.5 0.00 0.20 0.20 83 1012.4
20260506094009 10 278 6.4 9.7 0.00 0.20 0.20 83 1012.4
20260506093507 10 317 11.3 14.5 0.00 0.20 0.20 83 1012.0
20260506093004 10 291 6.4 8.0 0.00 0.20 0.20 84 1012.3
20260506092502 10 258 4.8 4.8 0.00 0.20 0.20 84 1012.4
20260506091958 10 164 6.4 12.9 0.00 0.20 0.20 84 1012.5
20260506091456 10 268 4.8 4.8 0.00 0.20 0.20 85 1012.1
20260506090953 10 3 14.5 22.5 0.00 0.20 0.20 85 1012.2
20260506090451 9 345 8.0 9.7 0.00 0.20 0.20 85 1012.1
20260506085947 9 21 14.5 16.1 0.00 0.20 0.20 86 1012.2
20260506085444 9 13 4.8 4.8 0.00 0.20 0.20 86 1012.1
20260506084941 9 21 9.7 14.5 0.00 0.20 0.20 87 1012.3
20260506084438 10 356 4.8 9.7 0.00 0.20 0.20 87 1012.2
20260506083933 10 302 4.8 11.3 0.00 0.20 0.20 87 1012.2
20260506083431 10 240 6.4 9.7 0.00 0.20 0.20 88 1012.2
20260506082928 9 2 6.4 9.7 0.13 0.20 0.20 88 1012.0
20260506082425 9 317 6.4 8.0 0.13 0.20 0.20 88 1011.9
20260506081921 9 81 8.0 12.9 0.18 0.18 0.18 88 1012.1
20260506081420 9 344 8.0 9.7 0.18 0.18 0.18 88 1012.1
20260506080916 9 282 8.0 9.7 0.00 0.15 0.15 88 1012.2
20260506080413 9 346 4.8 8.0 0.00 0.15 0.15 88 1012.1
20260506073357 8 314 3.2 3.2 0.30 0.13 0.13 88 1011.8
20260506072854 8 15 1.6 3.2 0.43 0.13 0.13 88 1011.9
20260506072351 8 7 1.6 3.2 0.30 0.08 0.08 88 1011.9
20260506071849 8 351 8.0 11.3 0.18 0.05 0.05 88 1011.7
20260506071347 8 10 8.0 12.9 0.00 0.03 0.03 88 1011.8
20260506070843 8 53 1.6 3.2 0.00 0.03 0.03 88 1011.9
20260506070341 8 3 4.8 8.0 0.00 0.03 0.03 88 1011.7
20260506062318 8 289 1.6 1.6 0.00 0.03 0.03 88 1011.6
20260506061814 8 3 3.2 3.2 0.13 0.03 0.03 88 1011.8
20260506061310 8 252 1.6 1.6 0.13 0.03 0.03 88 1011.5
20260506060809 7 238 1.6 1.6 0.00 0.00 0.00 88 1011.6
20260506060307 7 275 4.8 8.0 0.00 0.00 0.00 88 1011.6
20260506051238 7 317 3.2 3.2 0.00 0.00 0.00 89 1011.5
20260506050736 6 6 4.8 4.8 0.00 0.00 0.00 89 1011.6
20260506050233 6 265 1.6 1.6 0.00 0.00 0.00 89 1011.7
20260506044724 6 265 3.2 3.2 0.00 0.00 0.00 89 1011.6
20260506044221 6 235 1.6 3.2 0.00 0.00 0.00 88 1011.4
20260506043718 6 230 1.6 3.2 0.00 0.00 0.00 88 1011.5
20260506043216 6 266 1.6 1.6 0.00 0.00 0.00 88 1011.5
20260506042715 5 287 3.2 3.2 0.00 0.00 0.00 88 1011.3
20260506042212 5 287 3.2 3.2 0.00 0.00 0.00 88 1011.4
20260506041711 5 282 1.6 3.2 0.00 0.00 0.00 88 1011.4
20260506041208 5 267 3.2 4.8 0.00 0.00 0.00 88 1011.4
20260506040705 5 241 1.6 1.6 0.00 0.00 0.00 88 1011.6
20260506040201 5 271 1.6 1.6 0.00 0.00 0.00 88 1011.5
20260506035658 5 271 1.6 1.6 0.00 0.00 0.00 88 1011.4
20260506035155 5 245 1.6 1.6 0.00 0.00 0.00 88 1011.6
20260506034652 5 294 4.8 8.0 0.00 0.00 0.00 88 1011.7
20260506034149 5 261 3.2 3.2 0.00 0.00 0.00 88 1011.7
20260506033647 5 278 3.2 3.2 0.00 0.00 0.00 87 1011.8
20260506033143 5 281 3.2 4.8 0.00 0.00 0.00 87 1011.9
20260506032641 6 279 3.2 3.2 0.00 0.00 0.00 87 1011.7
20260506032137 6 290 3.2 4.8 0.00 0.00 0.00 87 1011.7
20260506031634 6 250 1.6 3.2 0.00 0.00 0.00 87 1011.9
20260506031131 6 218 1.6 3.2 0.00 0.00 0.00 87 1011.9
20260506030630 6 290 3.2 3.2 0.00 0.00 0.00 87 1012.1
20260506030127 6 282 1.6 3.2 0.00 0.00 0.00 87 1012.0
20260506025623 6 290 4.8 4.8 0.00 0.00 0.00 87 1012.2
20260506025119 6 305 1.6 1.6 0.00 0.00 0.00 86 1012.1
20260506024617 6 317 3.2 3.2 0.00 0.00 0.00 86 1012.0
20260506024113 6 303 1.6 1.6 0.00 0.00 0.00 86 1012.1
20260506023609 6 235 1.6 3.2 0.00 0.00 0.00 86 1012.2
20260506023107 6 252 1.6 3.2 0.00 0.00 0.00 86 1012.3
20260506022604 6 260 1.6 1.6 0.00 0.00 0.00 86 1012.2
20260506022102 6 250 1.6 1.6 0.00 0.00 0.00 85 1012.2
20260506021559 6 223 0.0 0.0 0.00 0.00 0.00 85 1012.4
20260506021056 6 267 1.6 1.6 0.00 0.00 0.00 85 1012.4
20260506020553 6 256 1.6 1.6 0.00 0.00 0.00 85 1012.2
20260506020051 6 247 1.6 3.2 0.00 0.00 0.00 85 1012.1
20260506015548 6 281 1.6 3.2 0.00 0.00 0.00 85 1012.3
20260506015045 6 271 0.0 1.6 0.00 0.00 0.00 84 1012.4
20260506014543 6 252 0.0 1.6 0.00 0.00 0.00 84 1012.6
20260506014038 6 262 3.2 3.2 0.00 0.00 0.00 84 1012.3
20260506013536 7 265 1.6 1.6 0.00 0.00 0.00 84 1012.4
20260506013033 7 244 3.2 3.2 0.00 0.00 0.00 84 1012.5
20260506012529 7 299 3.2 3.2 0.00 0.00 0.00 84 1012.4
20260506012026 7 269 1.6 3.2 0.00 0.00 0.00 84 1012.5
20260506011524 7 247 0.0 1.6 0.00 0.00 0.00 84 1012.6
20260506011020 7 298 1.6 3.2 0.00 0.00 0.00 84 1012.6
20260506010519 7 264 1.6 1.6 0.00 0.00 0.00 84 1012.5
20260506010015 7 290 1.6 1.6 0.00 0.00 0.00 83 1012.6
20260506005513 7 245 0.0 1.6 0.00 0.00 0.00 83 1012.7
20260506005008 7 239 1.6 1.6 0.00 0.00 0.00 83 1012.6
20260506004506 7 252 1.6 1.6 0.00 0.00 0.00 83 1012.8
20260506004002 7 290 1.6 3.2 0.00 0.00 0.00 83 1012.7
20260506003458 7 294 3.2 3.2 0.00 0.00 0.00 83 1013.0
20260506002954 8 246 1.6 1.6 0.00 0.00 0.00 82 1012.8
20260506002451 8 298 3.2 4.8 0.00 0.00 0.00 82 1012.9
20260506001946 8 268 3.2 3.2 0.00 0.00 0.00 82 1012.7
20260506001443 8 1 3.2 4.8 0.00 0.00 0.00 82 1012.8
20260506000941 8 264 3.2 3.2 0.00 0.00 0.00 82 1012.8
20260506000438 8 1 1.6 1.6 0.00 0.00 0.00 82 1012.8
20260505235935 8 280 4.8 4.8 0.00 0.00 0.00 82 1013.0
20260505235433 8 335 1.6 3.2 0.00 0.00 0.00 83 1013.1
20260505234930 8 20 4.8 4.8 0.00 0.00 0.00 83 1012.9
20260505234427 8 288 1.6 1.6 0.00 0.00 0.00 83 1012.8
20260505233924 8 236 0.0 1.6 0.00 0.00 0.00 83 1013.2
20260505233421 8 344 3.2 3.2 0.00 0.00 0.00 83 1013.0
20260505232919 8 7 1.6 3.2 0.00 0.00 0.00 82 1013.2
20260505232417 8 34 1.6 4.8 0.00 0.00 0.00 82 1013.1
20260505231913 8 261 0.0 1.6 0.00 0.00 0.00 82 1012.8
20260505231411 8 336 1.6 1.6 0.00 0.00 0.00 82 1013.1
20260505230909 9 15 4.8 4.8 0.00 0.00 0.00 82 1013.1
20260505230406 9 270 1.6 1.6 0.00 0.00 0.00 82 1013.2
20260505225902 9 277 1.6 3.2 0.00 0.00 0.00 82 1013.2
20260505225400 9 214 0.0 1.6 0.00 0.00 0.00 82 1013.4
20260505224855 9 224 1.6 1.6 0.00 0.00 0.00 82 1013.3
20260505224353 9 275 3.2 3.2 0.00 0.00 0.00 82 1013.3
20260505223849 9 55 4.8 4.8 0.00 0.00 0.00 82 1013.3
20260505223346 9 80 3.2 3.2 0.00 0.00 0.00 82 1013.3
20260505222842 9 48 3.2 3.2 0.00 0.00 0.00 83 1013.4
20260505222338 8 290 1.6 1.6 0.00 0.00 0.00 83 1013.3
20260505221836 8 1 1.6 1.6 0.00 0.00 0.00 83 1013.5
20260505221332 8 126 4.8 8.0 0.00 0.00 0.00 83 1013.6
20260505220829 8 353 4.8 9.7 0.00 0.00 0.00 83 1013.3
20260505220326 8 12 3.2 4.8 0.00 0.00 0.00 83 1013.4
20260505215824 8 222 1.6 1.6 0.00 0.00 0.00 83 1013.4
20260505215322 8 13 1.6 4.8 0.00 0.00 0.00 83 1013.6
20260505214820 8 1 3.2 3.2 0.00 0.00 0.00 83 1013.3
20260505214317 8 36 6.4 8.0 0.00 0.00 0.00 83 1013.3
20260505213814 8 30 8.0 9.7 0.00 0.00 0.00 83 1013.3
20260505213312 8 16 9.7 11.3 0.00 0.00 0.00 83 1013.3
20260505212807 8 358 4.8 4.8 0.00 0.00 0.00 83 1013.4
20260505212306 9 127 4.8 4.8 0.00 0.00 0.00 82 1013.4
20260505211801 9 20 4.8 8.0 0.00 0.00 0.00 82 1013.0
20260505211259 9 5 4.8 11.3 0.00 0.00 0.00 82 1013.4
20260505210755 9 45 3.2 4.8 0.00 0.00 0.00 82 1013.2
20260505210252 9 65 4.8 4.8 0.00 0.00 0.00 82 1013.5
20260505205749 9 336 4.8 8.0 0.00 0.00 0.00 82 1013.6
20260505205247 9 12 4.8 4.8 0.00 0.00 0.00 82 1013.4
20260505204744 9 342 8.0 11.3 0.00 0.00 0.00 82 1013.4
20260505204242 9 33 1.6 3.2 0.00 0.00 0.00 82 1013.5
20260505203738 9 16 6.4 8.0 0.00 0.00 0.00 82 1013.4
20260505203236 9 207 1.6 3.2 0.00 0.00 0.00 82 1013.6
20260505202731 9 331 3.2 4.8 0.00 0.00 0.00 82 1013.4
20260505202227 9 26 1.6 3.2 0.00 0.00 0.00 81 1013.5
20260505201724 9 6 4.8 4.8 0.00 0.00 0.00 81 1013.5
20260505201222 9 359 8.0 11.3 0.00 0.00 0.00 81 1013.5
20260505200720 10 73 1.6 1.6 0.00 0.00 0.00 81 1013.2
20260505200217 10 323 6.4 9.7 0.00 0.00 0.00 80 1013.2
20260505195712 10 8 3.2 4.8 0.00 0.00 0.00 80 1013.1
20260505195210 10 357 1.6 4.8 0.00 0.00 0.00 80 1013.1
20260505194707 10 8 3.2 4.8 0.00 0.00 0.00 79 1013.2
20260505194203 10 18 6.4 9.7 0.00 0.00 0.00 79 1013.1
20260505193659 10 13 1.6 1.6 0.00 0.00 0.00 79 1013.1
20260505193157 10 23 6.4 12.9 0.00 0.00 0.00 78 1012.9
20260505192655 10 115 3.2 3.2 0.00 0.00 0.00 78 1013.0
20260505192152 10 330 6.4 9.7 0.00 0.00 0.00 77 1012.7
20260505191650 10 1 1.6 3.2 0.00 0.00 0.00 77 1012.8
20260505191149 10 26 8.0 14.5 0.00 0.00 0.00 77 1012.7
20260505190644 10 14 8.0 11.3 0.00 0.00 0.00 77 1012.9
20260505190144 10 149 3.2 4.8 0.00 0.00 0.00 77 1012.7
20260505185641 10 14 6.4 9.7 0.00 0.00 0.00 77 1013.0
20260505185137 10 355 6.4 9.7 0.00 0.00 0.00 77 1012.8
20260505184634 10 37 8.0 11.3 0.00 0.00 0.00 76 1012.8
20260505184131 11 332 8.0 11.3 0.00 0.00 0.00 76 1012.8
20260505183628 11 41 4.8 4.8 0.00 0.00 0.00 75 1012.8
20260505183126 11 36 9.7 14.5 0.00 0.00 0.00 74 1013.0
20260505182621 11 0 8.0 12.9 0.00 0.00 0.00 73 1012.9
20260505182118 11 25 6.4 8.0 0.00 0.00 0.00 72 1012.7
20260505181615 11 169 4.8 8.0 0.00 0.00 0.00 72 1012.6
20260505181112 11 157 4.8 4.8 0.00 0.00 0.00 71 1012.7
20260505180608 11 3 4.8 8.0 0.00 0.00 0.00 71 1012.7
20260505180106 11 11 9.7 14.5 0.00 0.00 0.00 71 1012.7
20260505175601 11 213 6.4 11.3 0.00 0.00 0.00 70 1012.8
20260505175058 12 87 8.0 11.3 0.00 0.00 0.00 70 1012.8
20260505174555 12 75 8.0 14.5 0.00 0.00 0.00 69 1012.6
20260505174051 12 250 4.8 4.8 0.00 0.00 0.00 69 1012.7
20260505173548 12 342 9.7 14.5 0.00 0.00 0.00 68 1012.8
20260505173045 12 24 3.2 3.2 0.00 0.00 0.00 70 1012.7
20260505172542 12 344 4.8 8.0 0.00 0.00 0.00 69 1012.9
20260505172039 12 16 9.7 11.3 0.00 0.00 0.00 69 1012.7
20260505171534 12 22 12.9 17.7 0.00 0.00 0.00 68 1012.5
20260505171031 12 11 17.7 17.7 0.00 0.00 0.00 68 1012.6
20260505170528 12 19 6.4 9.7 0.00 0.00 0.00 69 1012.7
20260505170024 12 155 1.6 1.6 0.00 0.00 0.00 69 1012.7
20260505165519 12 4 14.5 16.1 0.00 0.00 0.00 69 1012.7
20260505165015 12 262 4.8 8.0 0.00 0.00 0.00 69 1012.6
20260505164511 12 286 0.0 1.6 0.00 0.00 0.00 70 1012.7
20260505164009 12 90 6.4 9.7 0.00 0.00 0.00 71 1012.8
20260505163507 12 16 9.7 12.9 0.00 0.00 0.00 70 1012.7
20260505163004 13 355 17.7 22.5 0.00 0.00 0.00 69 1012.4
20260505162457 13 93 3.2 4.8 0.00 0.00 0.00 68 1012.6
20260505161954 13 347 8.0 12.9 0.00 0.00 0.00 69 1012.4
20260505161450 12 0 4.8 8.0 0.00 0.00 0.00 69 1012.6
20260505160948 12 39 12.9 16.1 0.00 0.00 0.00 69 1012.5
20260505160446 12 39 8.0 11.3 0.00 0.00 0.00 68 1012.5
20260505152923 13 189 3.2 4.8 0.00 0.00 0.00 65 1012.4
20260505152420 13 5 4.8 4.8 0.00 0.00 0.00 64 1012.6
20260505151920 13 66 6.4 8.0 0.00 0.00 0.00 64 1012.6
20260505151416 13 184 4.8 8.0 0.00 0.00 0.00 64 1012.7
20260505150914 13 25 8.0 12.9 0.00 0.00 0.00 64 1012.5
20260505150410 14 61 3.2 3.2 0.00 0.00 0.00 63 1012.6
20260505140335 15 60 0.0 1.6 0.00 0.00 0.00 62 1012.7